Location: Newark
(47.5008°N, 9.7480°E)
Time: 00:44:08
(UTC+00:00)

ISS - Pass Details

Date: 26 July 2019
Orbit: 410 x 421 km, 51.6° (Epoch: 22 August)

Event Time Altitude Azimuth Distance (km) Brightness Sun altitude
Rises 22:15:04 0° 294° (WNW) 2,372 0.7 -21.2°
Reaches altitude 10° 22:17:11 10° 292° (WNW) 1,503 -0.4 -21.3°
Enters shadow 22:19:38 44° 277° (W) 594 -2.9 -21.4°
